SCP
1 1 1 0 0 0 0 0 0 0 0 0 0 0 0 0 0 0 0 1 1 1 1 0 0 1 1 1 1 1 1 1 1 2 2 2 1 1 1 1 1 1 1
1 1 1 0 0 0 0 0 0 0 0 0 0 0 0 0 0 0 0 0 1 1 0 0 0 0 1 1 1 1 1 1 1 2 2 2 1 1 1 1 1 1 1
1 1 1 0 0 0 0 0 0 0 0 0 0 0 0 0 0 0 0 0 0 0 0 0 0 0 0 1 0 0 1 1 1 2 2 2 2 1 1 1 1 1 1
1 1 0 0 0 0 0 0 0 0 0 0 0 0 0 0 0 0 0 0 0 0 0 0 0 0 0 0 0 0 0 1 1 1 2 2 2 2 2 1 1 1 1
1 1 0 0 0 0 0 0 0 0 0 0 0 0 0 0 0 0 0 0 0 0 0 0 0 0 0 0 0 0 0 0 1 1 2 2 2 2 2 2 1 1 1
1 1 0 0 0 0 0 0 0 0 0 0 0 0 0 0 0 0 0 0 0 0 0 0 0 0 0 0 0 0 0 0 1 1 1 2 2 2 2 2 1 1 1
1 1 0 0 0 0 0 0 0 0 0 0 0 0 0 0 0 0 0 0 0 0 0 0 0 0 0 0 0 0 0 0 0 1 1 2 2 2 2 2 1 1 1
1 0 0 0 0 0 0 0 0 0 0 0 0 0 0 0 0 0 0 0 0 0 0 0 0 0 0 0 0 0 0 0 0 1 1 1 2 2 2 2 2 1 1
0 0 0 0 0 0 0 0 0 0 0 0 0 0 0 0 0 0 0 0 0 0 0 0 0 0 0 0 0 0 0 0 0 0 1 1 1 2 2 2 2 2 1
0 0 0 0 0 0 0 0 0 0 0 0 0 0 0 0 0 0 0 0 0 0 0 0 0 0 0 0 0 0 0 0 0 0 1 1 1 1 2 2 2 2 1
0 0 0 0 0 0 0 0 0 0 0 0 0 0 0 0 0 0 0 0 0 0 0 0 0 0 0 0 0 0 0 0 0 0 0 1 1 1 1 2 2 2 2
0 0 0 0 0 0 0 0 0 0 0 0 0 0 0 0 0 0 0 0 0 0 0 0 0 0 0 0 0 0 0 0 0 0 0 1 1 1 1 2 2 2 2
0 0 0 0 0 0 0 0 0 0 0 0 0 0 0 0 0 0 0 0 0 0 0 0 0 0 0 0 0 0 0 0 0 0 0 0 0 1 1 1 2 2 2
0 0 0 0 0 0 0 0 0 0 0 0 0 0 0 0 0 0 0 0 0 0 0 0 0 0 0 0 0 0 0 0 0 0 0 0 0 0 0 1 1 1 1
0 0 0 0 0 0 0 0 0 0 0 0 0 0 0 0 0 0 0 0 0 0 0 0 0 0 0 0 0 0 0 0 0 0 0 0 0 0 0 0 0 1 1
0 0 0 0 0 0 0 0 0 0 0 0 0 0 0 0 0 0 0 0 0 0 0 0 0 0 0 0 0 0 0 0 0 0 0 0 0 0 0 0 0 0 0
0 0 0 0 0 0 0 0 0 0 0 0 0 0 0 0 0 0 0 0 0 0 0 0 0 0 0 0 0 0 0 0 0 0 0 0 0 0 0 0 0 0 0
0 0 0 0 0 0 0 0 0 0 0 0 0 0 0 0 0 0 0 0 0 0 0 0 0 0 0 0 0 0 0 0 0 0 0 0 0 0 0 0 0 0 0
0 0 0 0 0 0 0 0 0 0 0 0 0 0 0 0 0 0 0 0 0 0 0 0 0 0 0 0 0 0 0 0 0 0 0 0 0 0 0 0 0 0 0
0 0 0 0 0 0 0 0 0 0 0 0 0 0 0 0 0 0 0 0 0 0 0 0 0 0 0 0 0 0 0 0 0 0 0 0 0 0 0 0 0 0 0
0 0 0 0 0 0 0 0 0 0 0 0 0 0 0 0 0 0 0 0 0 0 0 0 0 0 0 0 0 0 0 0 0 0 0 0 0 0 0 0 0 0 0
0 0 0 0 0 0 0 0 0 0 0 0 0 0 0 0 0 0 0 0 0 0 0 0 0 0 0 0 0 0 0 0 0 0 0 0 0 0 0 0 0 0 0
0 0 0 0 0 0 0 0 0 0 0 0 0 0 0 0 0 0 0 0 0 0 0 0 0 0 0 0 0 0 0 0 0 0 0 0 0 0 0 0 0 0 0
0 0 0 0 0 0 0 0 0 0 0 0 0 0 0 0 0 0 0 0 0 0 0 0 0 0 0 0 0 0 0 0 0 0 0 0 0 0 0 0 0 0 0
0 0 0 0 0 0 0 0 0 0 0 0 0 0 0 0 0 0 0 0 0 0 0 0 0 0 0 0 0 0 0 0 0 0 0 0 0 0 0 0 0 0 0
0 0 0 0 0 0 0 0 0 0 0 0 0 0 0 0 0 0 0 0 0 0 0 0 0 0 0 0 0 0 0 0 0 0 0 0 0 0 0 0 0 0 0
Wind_Speed
5 4 3 3 3 3 4 4 4 5 5 5 6 6 6 5 5 4 4 9 9 9 10 10 10 10 10 10 10 10 9 9 10 9 9 9 9 9 9 9 9 9 9
5 5 4 4 3 3 3 4 5 5 4 5 6 6 5 4 5 5 4 6 10 9 9 10 9 9 9 9 9 9 9 9 9 9 9 9 9 9 9 9 8 8 8
5 5 5 4 3 3 4 5 5 5 5 5 5 5 5 5 5 5 5 4 5 8 9 9 9 8 8 8 8 8 9 8 8 9 9 9 9 9 9 8 8 8 8
6 5 5 4 4 4 4 5 4 5 4 4 4 4 4 4 5 4 4 4 4 4 6 9 9 8 7 7 7 8 8 8 8 8 8 8 8 7 7 8 7 6 6
6 5 4 4 5 4 4 5 4 4 5 5 4 4 3 3 3 4 4 4 4 4 4 6 8 8 7 7 7 7 7 7 7 7 7 7 7 7 7 6 6 6 6
5 5 4 5 5 5 4 5 5 4 5 5 5 4 3 3 3 3 3 3 3 4 4 4 4 5 7 7 6 6 6 6 6 6 6 6 6 6 6 5 5 5 5
5 5 5 5 5 5 6 7 6 6 4 4 4 3 3 3 3 2 2 2 3 3 3 3 3 3 3 6 6 5 5 4 5 5 5 5 5 5 4 4 5 5 5
5 5 6 5 5 4 6 6 7 4 3 3 4 4 2 2 2 2 2 1 2 2 2 2 2 2 2 2 3 5 4 4 3 4 4 4 4 4 3 4 4 4 4
6 5 6 5 5 5 6 7 7 6 5 2 2 4 4 3 0 2 1 1 1 1 1 1 1 1 2 2 2 3 4 3 3 3 3 3 3 3 3 3 3 3 4
5 6 6 6 6 5 6 7 6 4 6 5 2 1 2 4 4 1 1 1 1 0 0 0 1 1 1 1 2 3 3 3 3 3 3 2 2 2 2 2 2 2 3
4 5 5 6 5 5 6 6 5 5 5 5 4 3 2 1 2 3 2 1 1 1 1 1 1 0 0 1 1 1 3 3 3 3 4 3 3 3 3 3 3 3 3
3 4 5 5 5 5 6 6 6 6 5 5 3 3 4 4 3 3 3 2 2 2 1 1 1 1 1 1 1 2 3 3 3 4 4 4 4 4 4 4 3 3 3
3 4 4 4 4 4 5 5 5 6 6 6 5 3 3 3 3 3 3 2 1 2 1 2 2 2 1 1 1 2 3 3 4 5 5 5 4 4 5 5 5 4 4
4 5 4 4 4 4 5 4 4 5 5 5 5 4 3 3 3 3 4 4 2 1 2 3 2 2 2 1 2 2 2 4 4 5 5 6 5 5 5 5 5 5 5
3 5 5 5 5 5 5 5 4 5 5 5 5 5 4 3 3 3 3 4 5 4 4 4 3 2 2 1 3 1 2 4 5 5 5 6 5 5 5 5 5 5 5
5 5 5 6 5 5 5 5 4 5 5 5 4 5 4 3 3 3 3 3 3 4 4 3 3 2 2 2 4 2 2 4 5 5 5 5 5 4 5 5 5 5 6
5 6 6 6 6 6 5 5 5 5 6 5 5 6 6 5 4 4 3 3 3 2 3 2 1 1 2 2 2 2 2 2 3 5 5 5 5 5 4 5 5 6 6
5 5 5 6 5 6 6 6 6 6 6 6 6 6 6 5 5 4 4 4 4 3 3 3 2 2 3 3 2 2 2 2 2 5 6 6 6 5 5 5 5 6 7
4 4 5 5 5 6 6 6 6 6 6 6 6 7 7 7 6 4 5 5 4 3 2 3 3 2 1 2 1 2 2 2 3 4 5 6 6 6 6 6 6 7 7
4 4 4 5 5 5 6 6 6 6 6 5 5 6 7 7 8 7 6 6 4 4 3 3 2 2 1 2 2 2 2 2 3 3 4 5 6 6 6 7 7 7 7
4 4 4 4 4 5 5 6 6 6 6 6 5 6 6 7 9 8 6 6 6 5 4 3 3 2 2 3 4 2 3 2 2 2 2 3 3 3 3 6 7 7 8
3 3 4 4 4 4 7 8 6 6 6 6 6 6 6 7 8 9 9 9 8 7 6 4 3 4 5 4 3 3 2 2 3 2 2 3 2 3 3 3 7 8 8
3 3 3 4 4 5 8 8 8 5 6 6 6 6 5 5 6 5 6 7 8 8 8 6 6 6 6 5 5 4 4 3 4 2 1 4 2 4 3 5 9 9 9
3 4 4 4 4 5 7 8 7 5 5 5 6 6 6 6 6 6 6 5 5 5 6 5 6 6 6 5 6 5 5 2 2 2 2 3 3 3 3 3 8 9 9
3 3 3 4 4 5 7 8 7 4 4 5 5 5 6 6 8 8 6 6 5 4 4 4 4 4 5 5 5 3 3 2 3 3 2 2 3 3 3 3 5 8 8
3 3 3 3 4 5 6 7 6 3 4 4 4 4 7 7 8 9 7 7 6 5 4 3 2 3 3 4 6 5 5 4 2 3 3 2 2 1 3 3 3 3 4
Wind_Direction
134 128 121 111 107 104 104 100 94 91 83 75 72 71 64 60 53 43 43 57 67 77 84 86 86 83 79 76 75 75 75 75 76 79 80 79 78 77 76 73 70 68 65
142 138 132 125 121 118 111 109 108 100 90 85 76 68 64 58 54 47 40 46 55 64 75 80 81 81 80 79 78 78 74 76 75 76 80 80 76 73 72 70 67 66 64
146 144 139 136 135 125 116 110 103 99 95 88 78 68 63 57 56 50 44 40 39 49 62 72 74 77 77 78 78 78 74 74 76 74 75 76 74 71 67 66 65 62 60
146 142 143 143 139 128 122 119 114 106 97 93 82 66 59 58 57 55 51 46 38 36 46 61 64 67 72 73 75 76 74 71 73 72 71 71 69 70 67 62 59 57 57
149 144 145 148 143 134 129 129 118 118 113 102 89 70 55 55 51 58 57 48 45 45 37 46 52 55 63 65 69 74 73 70 66 66 65 66 65 63 62 59 56 53 53
152 143 141 145 148 142 138 134 128 117 120 118 98 70 47 42 43 49 55 48 49 50 47 41 35 37 50 58 58 62 65 67 63 62 62 59 61 58 55 54 52 48 46
154 150 147 149 154 155 154 148 137 128 125 128 104 78 36 34 40 34 44 52 47 44 53 46 38 30 23 39 45 48 52 62 61 59 60 57 54 51 48 49 46 42 39
163 157 154 161 162 153 150 153 148 142 154 157 134 126 97 15 7 11 21 54 47 38 53 49 50 44 28 10 22 37 37 44 46 47 50 50 45 44 39 41 40 35 32
169 164 163 164 169 167 169 169 168 158 164 184 162 146 152 183 226 337 352 6 52 59 38 40 51 42 34 18 358 13 22 23 27 23 26 30 29 30 28 25 27 24 19
176 169 167 167 173 175 175 180 177 171 164 169 169 152 145 150 153 164 320 328 340 347 288 346 34 22 27 8 358 4 4 359 353 348 348 350 350 2 2 351 353 357 359
184 176 171 172 176 179 181 182 180 179 177 175 169 154 131 113 139 153 198 262 306 291 262 237 216 232 331 332 306 327 342 337 329 325 326 322 321 324 335 331 327 328 333
187 183 177 178 182 182 186 188 187 187 189 181 177 169 163 165 174 162 172 207 246 275 277 259 233 225 235 263 281 322 314 311 314 311 312 316 313 315 316 323 310 310 315
195 191 182 181 186 190 189 188 188 191 190 184 185 189 185 180 162 156 152 171 227 270 262 252 234 222 234 231 265 302 298 301 302 303 302 305 311 312 312 318 316 303 303
198 187 182 185 190 188 186 186 191 195 190 189 193 191 188 189 171 168 165 160 173 254 249 245 237 219 223 224 248 281 281 291 292 296 299 301 306 309 308 312 316 310 300
193 183 183 188 192 192 188 184 195 200 193 197 195 194 193 194 187 179 171 168 166 195 233 233 225 221 222 225 245 250 260 277 283 290 296 299 303 303 300 306 309 313 305
186 185 189 189 191 193 190 188 194 201 195 201 197 192 196 194 188 182 178 179 178 183 218 219 224 223 220 241 245 250 252 271 281 281 288 292 290 292 292 297 300 306 311
191 190 191 194 194 193 190 191 201 198 200 203 204 199 200 190 188 188 183 182 184 177 203 246 242 223 207 220 246 249 256 257 272 280 285 288 285 284 287 293 299 302 305
196 192 193 197 200 198 194 197 203 204 201 203 204 201 203 196 193 190 189 193 196 193 186 216 236 219 221 215 215 229 261 272 269 277 280 282 281 279 280 286 294 299 299
192 191 194 198 201 203 202 203 203 204 203 208 204 202 204 194 198 198 195 196 198 197 186 189 219 229 227 212 211 251 262 268 276 277 276 279 280 277 278 281 289 293 294
190 193 201 204 206 206 204 202 202 204 206 210 212 208 208 202 202 198 199 200 192 186 178 177 197 218 230 210 195 228 264 267 276 284 276 278 279 277 278 280 285 290 290
199 197 198 209 211 212 208 200 201 205 207 211 216 216 217 216 214 209 204 196 188 188 184 185 195 207 217 206 213 217 243 274 278 266 278 277 275 271 272 277 278 281 281
200 196 203 211 219 224 222 215 205 202 208 211 215 219 222 219 219 220 217 208 196 190 190 192 204 211 216 214 204 211 220 250 268 243 241 268 254 260 260 259 274 276 277
196 204 211 214 222 231 228 220 216 206 207 211 210 211 219 219 218 213 214 212 215 218 210 201 204 214 208 202 193 206 215 226 246 240 236 266 255 257 265 273 276 277 278
202 208 214 217 227 237 236 225 219 211 212 214 213 211 212 215 213 206 201 204 211 216 220 217 213 214 211 201 198 203 211 228 274 254 218 255 262 261 270 268 276 276 279
220 218 217 216 226 239 239 231 222 203 211 219 221 219 215 216 216 209 199 201 209 221 228 231 237 231 221 210 197 169 180 202 248 247 220 237 261 277 275 265 270 278 281
223 226 232 224 225 233 237 233 222 202 208 216 220 225 225 221 219 208 196 193 206 212 200 205 221 224 211 205 205 195 192 204 226 244 215 216 247 268 285 274 261 269 273